Search for airport 
image banner adimage banner ad
image banner ad

FQIA - Inhaca

Located in , Mozambique

ICAO - FQIA, IATA - IHC

Data provided by Airmate  

General information

Coordinates: S25°59'49" E32°55'45"
Elevation is 8 feet MSL.
 
View others Airports in Maputo Province

Operational data

Open for public use
Current time UTC:
Current local time:
Weather at : FQMA - Maputo / International ( 37 km )
METAR: FQMA 310300Z 22011KT 9999 BKN020 21/16 Q1023 NOSIG
TAF: TAF FQMA 302200Z 3100/0106 21016KT 9999 BKN020 TX26/3113Z TN22/3103Z BECMG 3112/3114 15010KT
View NOTAMs / SUP AIP / TFR affecting this airport [VIEW]
Communications frequencies: [VIEW]

Runways:

RWY identifierQFULength (ft)Width (ft)SurfaceLDA (ft)
10246198
28246198
18295398
36295398

Airport contact information

Address: Mozambique

Satellite view of FQIA